Weather reports worldwide

Advertisment
Boscombe Down, United Kingdom (3746): temperature & dewpoint: 07.12.2018 09:00:00 - 13.12.2018 09:00:00 (GMT)Boscombe Down, United Kingdom (3746): wind speed & gusts: 07.12.2018 09:00:00 - 13.12.2018 09:00:00 (GMT)Boscombe Down, United Kingdom (3746): wind direction: 07.12.2018 09:00:00 - 13.12.2018 09:00:00 (GMT)Boscombe Down, United Kingdom (3746): reduced air pressure: 07.12.2018 09:00:00 - 13.12.2018 09:00:00 (GMT)Boscombe Down, United Kingdom (3746): visibility: 07.12.2018 09:00:00 - 13.12.2018 09:00:00 (GMT)Boscombe Down, United Kingdom (3746): precipitation: 07.12.2018 09:00:00 - 13.12.2018 09:00:00 (GMT)
Date & Time tt [°C] td [°C] ff [km/h] ff [kn] fx [km/h] fx [kn] dd ppp [hPa] vv [km] rr [mm]
13.12.2018 09:00:00 2,9 -0,1 22 12 - - E 1014,8 25 0,0
13.12.2018 08:00:00 3,3 0,2 22 12 - - ESE 1014,2 10 0,0
13.12.2018 07:00:00 4,2 -0,3 28 15 46 25 ESE 1013,7 10 0,0
13.12.2018 06:00:00 3,0 0,4 26 14 - - ESE 1013,8 29 0,0
13.12.2018 05:00:00 1,9 -0,1 18 10 - - E 1013,8 28 0,0
13.12.2018 04:00:00 2,2 0,0 24 13 - - ESE 1013,9 29 0,0
13.12.2018 03:00:00 1,6 -0,8 16 9 - - E 1014,8 35 0,0
13.12.2018 02:00:00 2,7 -0,8 21 11 - - ESE 1015,0 45 0,0
13.12.2018 01:00:00 3,5 -0,9 21 11 - - ESE 1015,5 50 0,0
13.12.2018 00:00:00 3,6 -1,6 16 9 - - ESE 1016,2 50 0,0
12.12.2018 23:00:00 2,5 -2,0 18 10 - - ESE 1016,5 50 0,0
12.12.2018 22:00:00 2,4 -1,6 16 9 - - ESE 1016,9 50 0,0
12.12.2018 21:00:00 2,6 -0,9 18 10 - - ESE 1017,2 10 0,0
12.12.2018 20:00:00 2,1 -0,9 15 8 - - ESE 1018,0 50 0,0
12.12.2018 19:00:00 3,6 -0,5 21 11 - - ESE 1018,3 45 0,0
12.12.2018 18:00:00 4,7 0,6 24 13 - - ESE 1018,8 10 0,0
12.12.2018 17:00:00 5,0 1,0 22 12 - - ESE 1018,9 10 0,0
12.12.2018 16:00:00 5,3 0,9 21 11 - - ESE 1019,7 30 0,0
12.12.2018 15:00:00 6,3 2,0 28 15 - - SE 1019,8 10 0,0
12.12.2018 14:00:00 6,8 2,8 26 14 - - SE 1019,8 10 0,0
12.12.2018 13:00:00 7,2 3,1 28 15 - - SE 1020,6 10 0,0
12.12.2018 12:00:00 7,3 3,3 22 12 - - SE 1021,2 10 0,0
12.12.2018 11:00:00 7,1 4,3 21 11 - - SSE 1021,7 30 0,0
12.12.2018 10:00:00 6,3 4,2 16 9 - - ESE 1021,3 10 0,0
12.12.2018 09:00:00 5,3 3,2 21 11 - - SE 1021,1 10 0,0
12.12.2018 08:00:00 4,7 2,9 15 8 - - SE 1021,1 10 0,0
12.12.2018 07:00:00 4,8 3,1 16 9 - - SE 1020,8 10 0,0
12.12.2018 06:00:00 6,3 4,7 15 8 - - SE 1020,5 40 0,0
12.12.2018 05:00:00 6,8 4,9 15 8 - - SE 1020,3 45 0,0
12.12.2018 04:00:00 6,6 5,4 13 7 - - ESE 1020,4 10 0,0
12.12.2018 03:00:00 6,4 5,3 13 7 - - ESE 1020,8 35 0,0
12.12.2018 02:00:00 6,0 5,2 8 4 - - ESE 1021,0 16 0,0
12.12.2018 01:00:00 5,9 5,1 13 7 - - SE 1021,1 30 0,0
12.12.2018 00:00:00 5,9 5,0 13 7 - - ESE 1021,3 35 0,0
11.12.2018 23:00:00 6,1 5,0 13 7 - - ESE 1021,4 35 0,0
11.12.2018 22:00:00 6,6 5,1 15 8 - - SE 1021,3 24 0,0
11.12.2018 21:00:00 6,9 5,6 13 7 - - SE 1021,5 10 0,0
11.12.2018 20:00:00 6,9 5,5 16 9 - - ESE 1021,8 17 0,0
11.12.2018 19:00:00 6,9 5,6 15 8 - - ESE 1022,1 35 0,0
11.12.2018 18:00:00 6,9 5,7 15 8 - - ESE 1022,1 20 0,0
11.12.2018 17:00:00 7,4 6,2 15 8 - - ESE 1022,2 10 0,0
11.12.2018 16:00:00 7,5 6,6 13 7 - - ESE 1022,3 10 0,0
11.12.2018 15:00:00 7,7 6,7 16 9 - - SE 1022,9 12 0,0
11.12.2018 14:00:00 8,1 6,1 13 7 - - SE 1023,4 8 0,0
11.12.2018 13:00:00 8,8 5,7 16 9 - - SE 1023,8 10 0,0
11.12.2018 12:00:00 8,4 5,8 13 7 - - SE 1024,3 10 0,0
11.12.2018 11:00:00 6,7 5,0 9 5 - - S 1025,2 10 0,0
11.12.2018 10:00:00 5,6 5,4 8 4 - - S 1025,4 10 0,0
11.12.2018 09:00:00 3,5 3,4 9 5 - - ESE 1026,0 10 0,0
11.12.2018 08:00:00 2,7 2,6 9 5 - - E 1025,9 2,8 0,0
11.12.2018 07:00:00 2,5 2,5 5 3 - - ESE 1026,1 2,0 0,0
11.12.2018 06:00:00 2,0 1,9 13 7 - - ENE 1026,0 0,5 0,0
11.12.2018 05:00:00 2,0 1,9 15 8 - - ENE 1026,5 0,5 0,2
11.12.2018 04:00:00 1,5 1,4 4 2 - - SE 1026,4 0,2 0,0
11.12.2018 03:00:00 2,2 1,9 8 4 - - S 1027,1 0,1 0,0
11.12.2018 02:00:00 3,5 3,2 5 3 - - SE 1027,2 0,1 0,0
11.12.2018 01:00:00 3,3 2,8 4 2 - - SE 1027,4 0,3 0,0
11.12.2018 00:00:00 4,3 3,6 5 3 - - NNE 1028,2 6 0,0
10.12.2018 23:00:00 4,9 3,9 8 4 - - WNW 1028,4 12 0,0
10.12.2018 22:00:00 5,0 4,2 5 3 - - SW 1028,5 13 0,0
10.12.2018 21:00:00 4,9 3,7 2 1 - - W 1028,6 10 0,0
10.12.2018 20:00:00 5,4 3,5 5 3 - - SW 1028,5 10 0,0
10.12.2018 19:00:00 5,7 3,9 8 4 - - W 1028,9 10 0,0
10.12.2018 18:00:00 6,1 3,7 5 3 - - W 1029,1 10 0,0
10.12.2018 17:00:00 6,2 3,7 9 5 - - W 1029,0 10 0,0
10.12.2018 16:00:00 6,9 3,9 5 3 - - W 1028,9 10 0,0
10.12.2018 15:00:00 8,8 4,2 15 8 - - WNW 1028,5 10 0,0
10.12.2018 14:00:00 9,1 4,6 11 6 - - WNW 1028,4 10 0,0
10.12.2018 13:00:00 8,4 4,4 15 8 - - WNW 1028,6 10 0,0
10.12.2018 12:00:00 8,1 4,6 15 8 - - WNW 1028,9 10 0,0
10.12.2018 11:00:00 6,9 4,2 15 8 - - WNW 1029,0 10 0,0
10.12.2018 10:00:00 6,1 3,6 18 10 - - WNW 1029,0 10 0,0
10.12.2018 09:00:00 5,0 3,6 16 9 - - W 1028,4 10 0,0
10.12.2018 08:00:00 4,8 3,4 15 8 - - W 1027,8 10 0,0
10.12.2018 07:00:00 5,8 4,0 16 9 - - WNW 1027,5 10 0,0
10.12.2018 06:00:00 6,9 4,3 21 11 - - W 1027,1 26 0,0
10.12.2018 05:00:00 6,7 4,4 18 10 - - W 1026,7 10 0,0
10.12.2018 04:00:00 6,1 4,3 16 9 - - W 1026,3 30 0,0
10.12.2018 03:00:00 5,8 3,7 18 10 - - W 1026,0 25 0,0
10.12.2018 02:00:00 6,3 3,7 13 7 - - WNW 1025,6 27 0,0
10.12.2018 01:00:00 7,4 4,8 21 11 - - W 1025,1 10 0,0
10.12.2018 00:00:00 7,4 4,8 21 11 - - W 1024,5 10 0,0
09.12.2018 23:00:00 7,3 5,1 15 8 - - W 1023,8 35 0,0
09.12.2018 22:00:00 6,8 4,5 18 10 - - W 1023,2 40 0,0
09.12.2018 21:00:00 6,5 4,2 18 10 - - WNW 1022,6 10 0,0
09.12.2018 20:00:00 7,1 4,5 21 11 - - WNW 1022,0 40 0,0
09.12.2018 19:00:00 7,4 5,1 18 10 - - WNW 1020,9 23 0,0
09.12.2018 18:00:00 7,6 5,5 18 10 - - WNW 1020,2 29 0,0
09.12.2018 17:00:00 7,9 4,9 26 14 - - WNW 1019,0 35 0,0
09.12.2018 16:00:00 9,5 3,8 28 15 - - WNW 1017,4 45 0,0
09.12.2018 15:00:00 10,2 5,5 28 15 52 28 WNW 1015,6 45 0,0
09.12.2018 14:00:00 10,7 4,9 34 18 50 27 WNW 1013,9 35 0,0
09.12.2018 13:00:00 10,7 6,3 31 17 52 28 WNW 1012,7 45 0,0
09.12.2018 12:00:00 10,6 6,5 34 18 52 28 WNW 1011,4 35 0,0
09.12.2018 11:00:00 10,0 6,4 39 21 54 29 WNW 1010,2 30 0,0
09.12.2018 10:00:00 9,6 6,1 34 18 54 29 WNW 1008,6 10 0,0
09.12.2018 09:00:00 9,5 5,9 39 21 57 31 W 1006,8 10 0,0
09.12.2018 08:00:00 9,6 6,2 41 22 59 32 W 1005,3 22 0,0
09.12.2018 07:00:00 9,5 6,4 41 22 65 35 W 1003,8 10 0,0
09.12.2018 06:00:00 9,2 6,2 41 22 70 38 W 1002,9 14 0,0
09.12.2018 05:00:00 9,0 6,0 44 24 68 37 W 1002,2 10 0,0
09.12.2018 04:00:00 8,3 5,9 35 19 52 28 WSW 1002,0 13 0,2
09.12.2018 03:00:00 8,1 6,1 35 19 61 33 W 1002,2 10 1,2
09.12.2018 02:00:00 7,9 5,9 34 18 57 31 WSW 1002,1 13 0,0
09.12.2018 01:00:00 7,5 5,6 46 25 72 39 W 1002,0 15 0,8
09.12.2018 00:00:00 7,7 5,3 39 21 63 34 WSW 1002,0 4,6 0,2
08.12.2018 23:00:00 7,9 5,7 37 20 59 32 W 1001,6 8 0,0
08.12.2018 22:00:00 8,3 5,3 34 18 68 37 W 1001,3 21 0,8
08.12.2018 21:00:00 8,2 5,8 41 22 72 39 W 1001,3 13 0,2
08.12.2018 20:00:00 9,5 6,5 34 18 54 29 W 1001,0 10 0,0
08.12.2018 19:00:00 9,1 6,8 39 21 63 34 W 1000,9 12 0,2
08.12.2018 18:00:00 9,5 6,1 34 18 55 30 W 1000,6 15 0,2
08.12.2018 17:00:00 10,3 6,5 41 22 59 32 W 1000,7 14 0,0
08.12.2018 16:00:00 10,5 9,0 44 24 59 32 W 1000,7 30 0,6
08.12.2018 15:00:00 11,4 8,5 34 18 55 30 W 1001,2 10 0,4
08.12.2018 14:00:00 11,1 10,0 29 16 55 30 SW 1002,4 5 0,0
08.12.2018 13:00:00 11,5 8,7 37 20 54 29 SW 1003,7 50 0,0
08.12.2018 12:00:00 10,4 7,6 31 17 46 25 SW 1005,3 40 0,0
08.12.2018 11:00:00 9,5 6,8 31 17 - - WSW 1007,0 24 0,0
08.12.2018 10:00:00 9,3 5,9 31 17 48 26 WSW 1007,5 10 0,0
08.12.2018 09:00:00 8,7 5,3 37 20 54 29 W 1007,3 11 0,0
08.12.2018 08:00:00 8,8 5,3 31 17 55 30 W 1007,5 9 0,0
08.12.2018 07:00:00 8,3 5,7 35 19 54 29 W 1007,3 14 0,2
08.12.2018 06:00:00 7,9 6,1 34 18 65 35 W 1006,9 5 0,2
08.12.2018 05:00:00 8,0 5,8 39 21 68 37 W 1006,5 10 0,0
08.12.2018 04:00:00 8,7 4,9 48 26 68 37 W 1006,1 10 0,2
08.12.2018 03:00:00 8,4 5,0 39 21 50 27 W 1006,1 16 0,0
08.12.2018 02:00:00 7,6 5,3 31 17 48 26 WSW 1006,4 12 0,2
08.12.2018 01:00:00 7,6 4,9 31 17 46 25 WSW 1006,3 18 0,0
08.12.2018 00:00:00 7,0 4,9 39 21 59 32 WSW 1006,5 21 0,0
07.12.2018 23:00:00 7,0 4,0 37 20 52 28 WSW 1006,6 10 0,0
07.12.2018 22:00:00 6,6 4,2 24 13 52 28 WSW 1007,0 25 0,0
07.12.2018 21:00:00 6,3 3,7 24 13 - - WSW 1006,9 10 0,2
07.12.2018 20:00:00 6,0 3,6 35 19 46 25 WSW 1006,9 28 0,0
07.12.2018 19:00:00 6,1 3,3 35 19 61 33 W 1006,5 45 0,2
07.12.2018 18:00:00 5,9 4,0 31 17 46 25 WSW 1005,8 30 1,8
07.12.2018 17:00:00 6,6 3,4 28 15 57 31 W 1005,2 40 0,0
07.12.2018 16:00:00 7,4 3,3 29 16 48 26 W 1004,4 10 0,0
07.12.2018 15:00:00 7,7 3,2 34 18 55 30 W 1003,6 10 0,0
07.12.2018 14:00:00 7,8 4,8 34 18 67 36 W 1003,0 10 0,8
07.12.2018 13:00:00 9,4 5,4 24 13 46 25 W 1002,3 10 0,0
07.12.2018 12:00:00 8,7 5,1 37 20 54 29 W 1002,0 10 0,0
07.12.2018 11:00:00 9,1 6,7 31 17 - - W 1001,3 10 0,0
07.12.2018 10:00:00 8,8 8,1 21 11 46 25 W 1000,7 10 0,8
07.12.2018 09:00:00 9,4 8,2 31 17 57 31 W 1001,3 10 4,0

tt = temperature
td = dewpoint
ff = wind speed
fx = gusts
dd = wind direction
ppp = reduced air pressure
vv = visibility
rr = precipitation

Next stations